Back to catalog

STARLINK-3691

AliveCommunicationsVLEO
NORAD 51960·PAYLOAD·🇺🇸 United States

Launched Mar 9, 2022 from Cape Canaveral Space Force Station

Loading…

Next Passes (next 24 hours)

TLE

FreshSource: CelesTrak SupGP

Epoch: Sep 14, 2026, 20:11 UTC

1 51960C 22025E   26257.84145833  .00042999  00000+0  13829-2 0  2574
2 51960  53.1592 236.4115 0001313  95.9401  67.0466 15.31676602    13

Track STARLINK-3691 in real time with AllMySat

Download on the App Store